User: anonymous   Login
Location: The Jewett Observatory
(46.7288°N, 117.1525°W)
Time: 11:23:42
(UTC-07:00)
Language:

Cosmos 1844 Rocket - Orbit

View from above orbital plane
View from above orbital plane
View from above satellite
View from above satellite

Ground track
Ground track

The orbit data is extracted from the following two-line orbital elements,

1 17974U 87041B   15213.57369580 -.00000051  00000-0 -15088-5 0  9998
2 17974 071.0081 274.3100 0014211 351.0667 168.2361 14.17174149459544
Epoch (UTC): 01 August 2015 13:46:07
Eccentricity: 0.0014211
inclination: 71.0081°
perigee height: 824 km
apogee height: 845 km
right ascension of ascending node: 274.3100°
argument of perigee: 351.0667°
revolutions per day: 14.17174149
mean anomaly at epoch: 168.2361°
orbit number at epoch: 45954

The dashed part of the orbit path shows where the satellite is in the earth's shadow,  

DLR